Flag for Iran Weather past 2 weeks in Bandar-Abbas, Iran

Now
93 °F

Haze.


Feels Like: 117 °F
Forecast: 82 / 100 °F
Wind: 9 mph from South

Location: Bandarabbass

Current Time: Jul 23, 2014 at 9:18:57 PM

Latest Report: Jul 23, 2014 at 9:00 PM


Visibility: 2 mi

Pressure: 29.39 "Hg

Humidity: 71%

Dew point: 82 °F

Location of Bandar-AbbasLocation

Historic Weather in Bandar-Abbas — Graph

°F

Bandar-Abbas temperature yesterday

Maximum temperature yesterday: 97 °F (at 12:30 PM)
Minimum temperature yesterday: 88 °F (at 3:30 AM)
Average temperature yesterday: 93 °F

Past Weeks' High & Low Weather Summary

 TemperatureHumidityPressure
High109 °F (Jul 19, 1:00 PM)89% (Jul 11, 3:20 AM)29.53 "Hg (Jul 11, 3:20 AM)
Low82 °F (Jul 19, 6:30 AM)19% (Jul 20, 11:00 AM)29.30 "Hg (Jul 16, 5:00 PM)
Average95 °F68%29.41 "Hg
* Reported Jul 8 7:30 PM — Jul 23 7:58 PM, Bandar-Abbas, Weather by CustomWeather, © 2014

Note: Actual official high and low records may vary slightly from our data, if they occured in-between our weather recording intervals... More about our weather records

Advertising

Bandar-Abbas weather history for previous 24 hours

 ConditionsComfort  
Time TempWeatherWind HumidityBarometerVisibility
7:58 PM
Jul 23
93 °FHaze.9 mph71%29.36 "Hg3 mi
7:30 PM93 °FHaze.12 mph71%29.33 "Hg3 mi
7:00 PM95 °FHaze.12 mph67%29.33 "Hg3 mi
6:30 PM97 °FSunny.12 mph60%29.33 "Hg3 mi
6:00 PM99 °FSunny.12 mph57%29.33 "Hg3 mi
5:30 PM99 °FSunny.14 mph60%29.33 "Hg2 mi
4:30 PM97 °FSunny.9 mph63%29.36 "Hg2 mi
3:58 PM99 °FSunny.9 mph60%29.36 "Hg2 mi
3:30 PM97 °FSunny.9 mph63%29.36 "Hg2 mi
3:00 PM97 °FHaze.9 mph67%29.39 "Hg2 mi
2:30 PM97 °FHaze.7 mph67%29.39 "Hg2 mi
2:00 PM97 °FHaze.12 mph67%29.42 "Hg2 mi
1:30 PM97 °FHaze.9 mph67%29.42 "Hg2 mi
12:30 PM95 °FScattered clouds.9 mph67%29.45 "Hg2 mi
10:30 AM93 °FScattered clouds.9 mph75%29.45 "Hg2 mi
10:00 AM93 °FPartly sunny.7 mph71%29.45 "Hg2 mi
9:30 AM93 °FPartly sunny.7 mph71%29.45 "Hg2 mi
9:00 AM91 °FPartly sunny.7 mph75%29.45 "Hg2 mi
8:30 AM91 °FPartly sunny.7 mph75%29.45 "Hg2 mi
8:00 AM90 °FFog.5 mph79%29.45 "Hg2 mi
7:30 AM90 °FFog.5 mph79%29.45 "Hg2 mi
6:55 AM88 °FFog.5 mph84%29.42 "Hg2 mi
6:30 AM88 °FFog.5 mph84%29.42 "Hg2 mi
5:20 AM88 °FFog.5 mph84%29.42 "Hg2 mi
4:20 AM88 °FFog.5 mph84%29.42 "Hg2 mi
3:30 AM90 °FFog.No wind79%29.42 "Hg2 mi
9:30 PM
Jul 22
91 °FClear.9 mph75%29.39 "Hg3 mi
9:00 PM91 °FSunny.9 mph75%29.39 "Hg3 mi
Weather by CustomWeather, © 2014

See weather overviewHow to use our weather pages